User: anonymous   Login
Location: G?julap?du
(16.5372°N, 81.0979°E)
Time: 14:51:07
(UTC+00:00)
Language:

SL-16 R/B - Orbit

View from above orbital plane
View from above orbital plane
View from above satellite
View from above satellite

Ground track
Ground track

The orbit is defined by the following mean orbital elements,

1 27006U          26160.21142588 +.00000000 +00000-0 +24587-4 0 00004
2 27006  99.7793 327.6458 0015298 111.3407  63.1088 13.71094507    01
Epoch (UTC): 09 June 2026 05:04:27
Eccentricity: 0.0015298
inclination: 99.7793°
perigee height: 984 km
apogee height: 1007 km
right ascension of ascending node: 327.6458°
argument of perigee: 111.3407°
revolutions per day: 13.71094507
mean anomaly at epoch: 63.1088°

The dashed part of the orbit path shows where the satellite is in the earth's shadow,  

DLR